Hourly Weather Roundup
Issued by NWS Central Illinois

Home | Current Version | Previous Version | Text Only | Print | Product List | Glossary On
Versions: 1 2 3 4 5 6 7 8 9 10 11 12 13 14 15 16 17 18 19 20 21 22 23 24 25 26 27 28 29 30 31 32 33 34 35 36 37 38 39 40 41 42 43 44 45 46 47 48 49 50
000
NZUS43 KILX 041510
HWRILX

AREA WEATHER ROUNDUP
NATIONAL WEATHER SERVICE, LINCOLN IL
1000 AM CDT MON MAY 04 2015


CITY           SKY/WX    TMP DP  RH WIND       PRES   REMARKS
BLOOMINGTON    CLOUDY    66  62  87 S13       30.07F
CHAMPAIGN      CLOUDY    65  60  84 S13       30.09F
DANVILLE       CLOUDY    60  58  92 SE7       30.09F
DECATUR        CLOUDY    68  61  78 SW12      30.10R
EFFINGHAM      CLOUDY    66  57  72 S5        30.16R
FLORA          PTSUNNY   73  55  54 SW8       30.15S
GALESBURG      CLOUDY    64  61  91 S7        30.06R
JACKSONVILLE   CLOUDY    74  60  61 S12       30.07F
LACON          CLOUDY    64  60  88 SW8       30.04R
LAWRENCEVILLE  CLOUDY    72  54  53 W8        30.16R
LITCHFIELD     CLOUDY    70  60  69 S10       30.11F
$$


CITY           SKY/WX    TMP DP  RH WIND       PRES   REMARKS
LINCOLN        CLOUDY    68  61  78 S7G16     30.06R
MACOMB         CLOUDY    66  63  88 S10       30.08R
MATTOON        LGT RAIN  65  58  78 SW9       30.12F
MT CARMEL AP   PTSUNNY   77  46  33 SW12      30.15S
OLNEY-NOBLE AP PTSUNNY   72  54  53 SW5       30.16R
PARIS          DRIZZLE   65  59  80 S7        30.15S
PEORIA         LGT RAIN  66  62  87 S10       30.05S FOG
PONTIAC        CLOUDY    64  62  91 S7        30.06S
RANTOUL        CLOUDY    64  60  88 S8        30.09F
ROBINSON       PTSUNNY   73  53  50 W9        30.16S
SPRINGFIELD    CLOUDY    71  60  68 S13       30.08S
TAYLORVILLE    CLOUDY    70  59  68 SW12      30.10F
$$

...REGIONAL REPORTS...


CITY           SKY/WX    TMP DP  RH WIND       PRES   REMARKS
CHICAGO O`HARE CLOUDY    66  58  75 W10       30.07R
KANKAKEE       DRIZZLE   61  60  95 S8        30.07F
MOLINE         PTSUNNY   66  59  78 VRB3      30.06R
MOUNT VERNON   PTSUNNY  N/A N/A N/A S8        30.16R
PITTSFIELD     CLOUDY    74  58  56 S9        30.08S
QUINCY         CLOUDY    72  57  59 SW10      30.06R
ROCKFORD       CLOUDY    65  57  75 NW6       30.09R
$$


CITY           SKY/WX    TMP DP  RH WIND       PRES   REMARKS
BURLINGTON     CLOUDY    65  62  90 S6        30.05R
CEDAR RAPIDS   PTSUNNY   66  61  84 NE7       30.06R
DES MOINES     CLOUDY    68  57  68 NE15      30.05R
KIRKSVILLE     MOSUNNY   70  61  73 W3        30.06S
OTTUMWA        PTSUNNY   71  61  70 S9        30.04R
ST LOUIS       CLOUDY    75  60  59 S8        30.11S
$$


CITY           SKY/WX    TMP DP  RH WIND       PRES   REMARKS
TERRE HAUTE    LGT RAIN  61  58  90 CALM      30.16S FOG
EVANSVILLE     PTSUNNY   71  55  56 SW10      30.18R
INDIANAPOLIS   LGT RAIN  66  52  60 W16       30.16R
LAFAYETTE      CLOUDY    59  57  93 VRB5      30.12S
MADISON        CLOUDY    64  57  78 N7        30.07R
MILWAUKEE      CLOUDY    68  54  60 W7        30.05R
$$




USA.gov is the U.S. government's official web portal to all federal, state and local government web resources and services.